ITY7875 LICJ-LTFM

Flight info

Callsign ITY7875
Flight time 1h 50m
Altitude 19000
Route ROSAS Q152 VAKOR/N0426F360 DCT LATAN/N0431F370 UL869 KRK UM600 KOGIS DCT PEREN UN644 DIGTI UT162 DRAMO
Aircraft A320/M-SDE3FGHIRWY/LB1

Departure

Time 2026-05-07 11:43
Airport Falcone–Borsellino Airport (LICJ)

Arrival

Time 2026-05-07 13:33
Airport İstanbul Airport (LTFM)
Time Latitude Longitude Altitude Speed Heading
2026-05-07 11:20 38.18531 13.10558 65 ft 0 kts 337°
2026-05-07 11:34 38.18510 13.10568 58 ft 4 kts 342°
2026-05-07 11:34 38.18484 13.10576 58 ft 4 kts 356°
2026-05-07 11:34 38.18460 13.10572 59 ft 4 kts 42°
2026-05-07 11:35 38.18454 13.10563 57 ft 0 kts 66°
2026-05-07 11:37 38.18458 13.10576 60 ft 5 kts 66°
2026-05-07 11:37 38.18481 13.10645 61 ft 12 kts 66°
2026-05-07 11:37 38.18499 13.10771 65 ft 18 kts 105°
2026-05-07 11:37 38.18447 13.10925 62 ft 18 kts 149°
2026-05-07 11:38 38.18366 13.10819 64 ft 23 kts 246°
2026-05-07 11:38 38.18284 13.10577 63 ft 36 kts 247°
2026-05-07 11:38 38.18185 13.10275 60 ft 30 kts 246°
2026-05-07 11:38 38.18098 13.10025 59 ft 33 kts 247°
2026-05-07 11:39 38.18006 13.09750 61 ft 35 kts 247°
2026-05-07 11:39 38.17915 13.09478 61 ft 27 kts 246°
2026-05-07 11:39 38.17841 13.09261 68 ft 27 kts 246°
2026-05-07 11:39 38.17763 13.09028 64 ft 26 kts 247°
2026-05-07 11:40 38.17673 13.08891 61 ft 13 kts 217°
2026-05-07 11:40 38.17605 13.08826 63 ft 11 kts 217°
2026-05-07 11:40 38.17518 13.08748 69 ft 19 kts 208°
2026-05-07 11:40 38.17368 13.08681 70 ft 27 kts 199°
2026-05-07 11:41 38.17152 13.08594 61 ft 37 kts 197°
2026-05-07 11:41 38.16906 13.08494 61 ft 28 kts 199°
2026-05-07 11:41 38.16761 13.08441 65 ft 19 kts 185°
2026-05-07 11:41 38.16654 13.08518 63 ft 19 kts 115°
2026-05-07 11:42 38.16711 13.08617 66 ft 14 kts 23°
2026-05-07 11:42 38.16851 13.08697 69 ft 47 kts 24°
2026-05-07 11:42 38.17374 13.08988 63 ft 114 kts 24°
2026-05-07 11:42 38.18248 13.09466 202 ft 151 kts 23°
2026-05-07 11:43 38.19191 13.09987 894 ft 145 kts 24°
2026-05-07 11:43 38.20124 13.10513 1451 ft 150 kts 25°
2026-05-07 11:43 38.21128 13.11083 1711 ft 171 kts 25°
2026-05-07 11:43 38.22281 13.11738 1959 ft 191 kts 26°
2026-05-07 11:44 38.23561 13.12466 2176 ft 214 kts 25°
2026-05-07 11:44 38.24988 13.13273 2462 ft 237 kts 24°
2026-05-07 11:44 38.26567 13.14176 2844 ft 258 kts 27°
2026-05-07 11:44 38.28201 13.15222 3579 ft 266 kts 29°
2026-05-07 11:45 38.29848 13.16337 4428 ft 270 kts 30°
2026-05-07 11:45 38.31513 13.17477 5268 ft 274 kts 30°
2026-05-07 11:45 38.33202 13.18632 6108 ft 277 kts 30°
2026-05-07 11:45 38.34913 13.19799 6890 ft 281 kts 30°
2026-05-07 11:46 38.36627 13.20966 7627 ft 286 kts 30°
2026-05-07 11:46 38.38398 13.22170 8434 ft 288 kts 30°
2026-05-07 11:46 38.40179 13.23380 9252 ft 292 kts 29°
2026-05-07 11:46 38.41990 13.24608 9955 ft 298 kts 29°
2026-05-07 11:47 38.43869 13.25883 10305 ft 317 kts 29°
2026-05-07 11:47 38.45888 13.27254 10507 ft 340 kts 29°
2026-05-07 11:47 38.48014 13.28698 10981 ft 351 kts 28°
2026-05-07 11:47 38.50186 13.30170 11606 ft 357 kts 28°
2026-05-07 11:48 38.52396 13.31664 12256 ft 362 kts 28°
2026-05-07 11:48 38.54605 13.33160 12893 ft 367 kts 27°
2026-05-07 11:48 38.56882 13.34701 13524 ft 373 kts 27°
2026-05-07 11:48 38.59187 13.36266 14108 ft 378 kts 27°
2026-05-07 11:49 38.61527 13.37858 14646 ft 383 kts 27°
2026-05-07 11:49 38.63888 13.39466 15232 ft 386 kts 27°
2026-05-07 11:49 38.66270 13.41090 15824 ft 390 kts 26°
2026-05-07 11:49 38.68673 13.42728 16405 ft 393 kts 26°
2026-05-07 11:50 38.71101 13.44383 16989 ft 397 kts 26°
2026-05-07 11:50 38.73516 13.46030 17552 ft 400 kts 25°
2026-05-07 11:50 38.75983 13.47714 18129 ft 404 kts 25°
2026-05-07 11:50 38.78467 13.49432 18632 ft 408 kts 28°
2026-05-07 11:51 38.80756 13.51631 19113 ft 415 kts 42°
2026-05-07 11:51 38.82635 13.54478 19578 ft 422 kts 56°
2026-05-07 11:51 38.83989 13.57831 20034 ft 427 kts 70°
2026-05-07 11:51 38.84727 13.61527 20477 ft 430 kts 84°
2026-05-07 11:52 38.84822 13.65359 20918 ft 432 kts 94°
2026-05-07 11:52 38.84728 13.69236 21370 ft 437 kts 94°
2026-05-07 11:52 38.84631 13.73149 21825 ft 441 kts 94°
2026-05-07 11:52 38.84540 13.77102 22268 ft 446 kts 94°
2026-05-07 11:53 38.84451 13.81044 22699 ft 450 kts 94°
2026-05-07 11:53 38.84358 13.85069 23129 ft 454 kts 94°
2026-05-07 11:53 38.84264 13.89139 23498 ft 459 kts 94°
2026-05-07 11:53 38.84167 13.93257 23824 ft 464 kts 94°
2026-05-07 11:54 38.84067 13.97413 24144 ft 468 kts 94°
2026-05-07 11:54 38.83963 14.01603 24461 ft 472 kts 94°
2026-05-07 11:54 38.83857 14.05834 24779 ft 476 kts 94°
2026-05-07 11:54 38.83748 14.10094 25084 ft 480 kts 94°
2026-05-07 11:55 38.83675 14.14342 25381 ft 485 kts 90°
2026-05-07 11:55 38.83986 14.18660 25673 ft 490 kts 82°
2026-05-07 11:55 38.84493 14.22999 25954 ft 493 kts 81°
2026-05-07 11:55 38.85001 14.27363 26242 ft 497 kts 81°
2026-05-07 11:56 38.85509 14.31759 26530 ft 500 kts 81°
2026-05-07 11:56 38.86015 14.36192 26816 ft 504 kts 81°
2026-05-07 11:56 38.86520 14.40661 27107 ft 507 kts 81°
2026-05-07 11:56 38.87026 14.45162 27389 ft 511 kts 81°
2026-05-07 11:57 38.87537 14.49684 27667 ft 514 kts 81°
2026-05-07 11:57 38.88046 14.54178 27942 ft 517 kts 81°
2026-05-07 11:57 38.88564 14.58757 28232 ft 521 kts 81°
2026-05-07 11:57 38.89084 14.63369 28500 ft 524 kts 81°
2026-05-07 11:58 38.89603 14.68018 28770 ft 527 kts 81°
2026-05-07 11:58 38.90117 14.72688 29023 ft 530 kts 81°
2026-05-07 11:58 38.90631 14.77386 29270 ft 533 kts 81°
2026-05-07 11:58 38.91146 14.82106 29510 ft 536 kts 81°
2026-05-07 11:59 38.91663 14.86861 29755 ft 539 kts 81°
2026-05-07 11:59 38.92176 14.91577 29965 ft 542 kts 81°
2026-05-07 11:59 38.92698 14.96378 30167 ft 544 kts 80°
2026-05-07 11:59 38.93220 15.01195 30366 ft 546 kts 80°
2026-05-07 12:00 38.93744 15.06034 30562 ft 548 kts 80°
2026-05-07 12:00 38.94268 15.10894 30759 ft 550 kts 81°
2026-05-07 12:00 38.94790 15.15774 30948 ft 552 kts 81°
2026-05-07 12:00 38.95312 15.20667 31189 ft 552 kts 81°
2026-05-07 12:01 38.95833 15.25552 31459 ft 552 kts 81°
2026-05-07 12:01 38.96351 15.30438 31706 ft 552 kts 81°
2026-05-07 12:01 38.96861 15.35264 31994 ft 551 kts 81°
2026-05-07 12:01 38.97374 15.40138 32273 ft 551 kts 81°
2026-05-07 12:02 38.97883 15.45020 32543 ft 551 kts 81°
2026-05-07 12:02 38.98388 15.49896 32804 ft 551 kts 81°
2026-05-07 12:02 38.98889 15.54773 33089 ft 551 kts 81°
2026-05-07 12:02 38.99393 15.59663 33298 ft 553 kts 81°
2026-05-07 12:03 38.99897 15.64567 33503 ft 554 kts 81°
2026-05-07 12:03 39.00400 15.69474 33769 ft 553 kts 81°
2026-05-07 12:03 39.00896 15.74317 34014 ft 554 kts 81°
2026-05-07 12:03 39.01394 15.79224 34234 ft 554 kts 81°
2026-05-07 12:04 39.01888 15.84125 34477 ft 553 kts 81°
2026-05-07 12:04 39.02382 15.89031 34706 ft 553 kts 81°
2026-05-07 12:04 39.02874 15.93934 34943 ft 553 kts 81°
2026-05-07 12:04 39.03362 15.98832 35162 ft 552 kts 81°
2026-05-07 12:05 39.03845 16.03728 35378 ft 551 kts 80°
2026-05-07 12:05 39.04325 16.08619 35611 ft 550 kts 80°
2026-05-07 12:05 39.04803 16.13499 35829 ft 550 kts 80°
2026-05-07 12:05 39.05277 16.18317 35989 ft 550 kts 79°
2026-05-07 12:06 39.05756 16.23179 36032 ft 548 kts 79°
2026-05-07 12:06 39.06701 16.32891 36026 ft 546 kts 80°
2026-05-07 12:07 39.07632 16.42595 36032 ft 546 kts 79°
2026-05-07 12:07 39.08551 16.52298 36045 ft 547 kts 80°
2026-05-07 12:08 39.09465 16.62011 36049 ft 547 kts 80°
2026-05-07 12:08 39.10369 16.71671 36059 ft 547 kts 79°
2026-05-07 12:09 39.11274 16.81383 36062 ft 545 kts 79°
2026-05-07 12:09 39.12164 16.91090 36081 ft 546 kts 80°
2026-05-07 12:10 39.13041 17.00809 36078 ft 546 kts 79°
2026-05-07 12:10 39.13910 17.10450 36069 ft 545 kts 79°
2026-05-07 12:11 39.14781 17.20147 36073 ft 545 kts 79°
2026-05-07 12:11 39.15640 17.29836 36072 ft 545 kts 79°
2026-05-07 12:12 39.16483 17.39529 36104 ft 544 kts 79°
2026-05-07 12:12 39.17323 17.49222 36077 ft 544 kts 79°
2026-05-07 12:13 39.18145 17.58852 36074 ft 544 kts 79°
2026-05-07 12:13 39.18969 17.68531 36066 ft 544 kts 79°
2026-05-07 12:14 39.19792 17.78218 36072 ft 543 kts 79°
2026-05-07 12:14 39.20601 17.87888 36081 ft 542 kts 79°
2026-05-07 12:15 39.21389 17.97547 36083 ft 541 kts 79°
2026-05-07 12:15 39.22172 18.07124 36081 ft 541 kts 79°
2026-05-07 12:16 39.22956 18.16768 36077 ft 540 kts 79°
2026-05-07 12:16 39.23726 18.26411 36073 ft 540 kts 79°
2026-05-07 12:17 39.24484 18.36060 36073 ft 540 kts 79°
2026-05-07 12:17 39.25239 18.45704 36066 ft 540 kts 79°
2026-05-07 12:18 39.25981 18.55271 36069 ft 540 kts 79°
2026-05-07 12:18 39.26723 18.64906 36081 ft 539 kts 79°
2026-05-07 12:19 39.27459 18.74529 36081 ft 539 kts 79°
2026-05-07 12:19 39.28174 18.84151 36093 ft 538 kts 79°
2026-05-07 12:19 39.28809 18.88860 36103 ft 526 kts 65°
2026-05-07 12:20 39.29999 18.93286 36099 ft 521 kts 62°
2026-05-07 12:20 39.32495 19.02048 36113 ft 520 kts 62°
2026-05-07 12:21 39.35008 19.10784 36125 ft 517 kts 62°
2026-05-07 12:21 39.37492 19.19484 36122 ft 515 kts 63°
2026-05-07 12:22 39.39918 19.28107 36117 ft 513 kts 63°
2026-05-07 12:22 39.42342 19.36763 36111 ft 511 kts 63°
2026-05-07 12:23 39.44769 19.45401 36102 ft 510 kts 63°
2026-05-07 12:23 39.47187 19.54018 36096 ft 507 kts 65°
2026-05-07 12:24 39.49567 19.62532 36088 ft 502 kts 65°
2026-05-07 12:24 39.51937 19.71018 36083 ft 501 kts 65°
2026-05-07 12:25 39.54292 19.79519 36082 ft 501 kts 65°
2026-05-07 12:25 39.56618 19.87968 36071 ft 501 kts 65°
2026-05-07 12:26 39.58955 19.96480 36079 ft 501 kts 65°
2026-05-07 12:26 39.61290 20.04983 36108 ft 500 kts 66°
2026-05-07 12:27 39.63620 20.13467 36103 ft 499 kts 66°
2026-05-07 12:27 39.65932 20.21942 36105 ft 498 kts 66°
2026-05-07 12:28 39.68212 20.30357 36103 ft 497 kts 67°
2026-05-07 12:28 39.70508 20.38831 36115 ft 498 kts 67°
2026-05-07 12:29 39.72792 20.47293 36117 ft 496 kts 67°
2026-05-07 12:29 39.75059 20.55734 36135 ft 494 kts 68°
2026-05-07 12:30 39.77318 20.64167 36145 ft 493 kts 68°
2026-05-07 12:30 39.79568 20.72578 36153 ft 492 kts 68°
2026-05-07 12:31 39.81814 20.80991 36151 ft 492 kts 68°
2026-05-07 12:31 39.84031 20.89335 36164 ft 490 kts 68°
2026-05-07 12:32 39.86250 20.97705 36152 ft 488 kts 69°
2026-05-07 12:32 39.88447 21.06050 36156 ft 487 kts 69°
2026-05-07 12:33 39.91717 21.18538 36167 ft 485 kts 69°
2026-05-07 12:33 39.93888 21.26834 36164 ft 483 kts 69°
2026-05-07 12:34 39.96041 21.35070 36168 ft 483 kts 69°
2026-05-07 12:34 39.98194 21.43345 36166 ft 482 kts 70°
2026-05-07 12:35 40.00329 21.51613 36173 ft 480 kts 70°
2026-05-07 12:35 40.02452 21.59855 36157 ft 480 kts 70°
2026-05-07 12:36 40.04568 21.68107 36153 ft 479 kts 70°
2026-05-07 12:36 40.06670 21.76293 36153 ft 479 kts 70°
2026-05-07 12:37 40.08779 21.84532 36196 ft 478 kts 71°
2026-05-07 12:37 40.10866 21.92753 36201 ft 476 kts 71°
2026-05-07 12:38 40.12943 22.00952 36198 ft 475 kts 71°
2026-05-07 12:38 40.15004 22.09087 36184 ft 474 kts 71°
2026-05-07 12:39 40.17068 22.17262 36170 ft 473 kts 71°
2026-05-07 12:39 40.19118 22.25432 36172 ft 472 kts 71°
2026-05-07 12:40 40.21151 22.33589 36179 ft 472 kts 72°
2026-05-07 12:40 40.23188 22.41754 36173 ft 472 kts 72°
2026-05-07 12:41 40.25202 22.49838 36158 ft 470 kts 72°
2026-05-07 12:41 40.27215 22.57969 36157 ft 469 kts 72°
2026-05-07 12:42 40.29221 22.66101 36157 ft 469 kts 72°
2026-05-07 12:42 40.31213 22.74216 36153 ft 468 kts 72°
2026-05-07 12:43 40.33204 22.82352 36148 ft 468 kts 72°
2026-05-07 12:43 40.35177 22.90414 36144 ft 468 kts 72°
2026-05-07 12:44 40.37161 22.98549 36144 ft 468 kts 72°
2026-05-07 12:44 40.39140 23.06685 36143 ft 468 kts 72°
2026-05-07 12:45 40.41109 23.14820 36137 ft 468 kts 72°
2026-05-07 12:45 40.43069 23.22967 36139 ft 468 kts 72°
2026-05-07 12:46 40.45008 23.31052 36139 ft 467 kts 72°
2026-05-07 12:46 40.46955 23.39192 36135 ft 467 kts 72°
2026-05-07 12:47 40.48898 23.47323 36128 ft 467 kts 72°
2026-05-07 12:47 40.50834 23.55476 36122 ft 468 kts 72°
2026-05-07 12:48 40.52766 23.63645 36132 ft 468 kts 72°
2026-05-07 12:48 40.54676 23.71778 36138 ft 469 kts 72°
2026-05-07 12:49 40.56602 23.79972 36129 ft 470 kts 72°
2026-05-07 12:49 40.58525 23.88188 36129 ft 470 kts 72°
2026-05-07 12:50 40.60444 23.96410 36129 ft 471 kts 72°
2026-05-07 12:50 40.62360 24.04654 36138 ft 471 kts 72°
2026-05-07 12:51 40.64266 24.12849 36140 ft 472 kts 71°
2026-05-07 12:51 40.66178 24.21121 36142 ft 473 kts 72°
2026-05-07 12:52 40.68079 24.29417 36142 ft 473 kts 72°
2026-05-07 12:52 40.69974 24.37708 36148 ft 473 kts 72°
2026-05-07 12:53 40.71874 24.46010 36148 ft 472 kts 72°
2026-05-07 12:53 40.73763 24.54296 36158 ft 472 kts 72°
2026-05-07 12:54 40.75630 24.62535 36158 ft 471 kts 72°
2026-05-07 12:54 40.77499 24.70816 36152 ft 471 kts 72°
2026-05-07 12:55 40.79367 24.79098 36129 ft 470 kts 72°
2026-05-07 12:55 40.81215 24.87369 36131 ft 470 kts 72°
2026-05-07 12:56 40.83059 24.95662 36134 ft 470 kts 72°
2026-05-07 12:56 40.84902 25.03941 36145 ft 469 kts 72°
2026-05-07 12:57 40.86727 25.12151 36150 ft 469 kts 72°
2026-05-07 12:57 40.88550 25.20411 36150 ft 468 kts 72°
2026-05-07 12:58 40.90361 25.28674 36146 ft 468 kts 72°
2026-05-07 12:58 40.92168 25.36938 36145 ft 467 kts 72°
2026-05-07 12:59 40.93971 25.45199 35444 ft 468 kts 72°
2026-05-07 12:59 40.94872 25.49328 34838 ft 466 kts 72°
2026-05-07 12:59 40.95751 25.53379 34299 ft 463 kts 72°
2026-05-07 13:00 40.96637 25.57463 33712 ft 461 kts 72°
2026-05-07 13:00 40.97516 25.61524 33139 ft 457 kts 72°
2026-05-07 13:00 40.98385 25.65555 32598 ft 454 kts 72°
2026-05-07 13:00 40.99244 25.69553 32087 ft 451 kts 72°
2026-05-07 13:01 41.00101 25.73536 31588 ft 447 kts 72°
2026-05-07 13:01 41.00948 25.77458 31114 ft 443 kts 72°
2026-05-07 13:01 41.01790 25.81374 30642 ft 440 kts 72°
2026-05-07 13:01 41.02624 25.85256 30191 ft 437 kts 73°
2026-05-07 13:02 41.03438 25.89057 29694 ft 433 kts 73°
2026-05-07 13:02 41.04251 25.92880 29206 ft 429 kts 73°
2026-05-07 13:02 41.05054 25.96663 28705 ft 426 kts 72°
2026-05-07 13:02 41.05852 26.00428 28234 ft 422 kts 72°
2026-05-07 13:03 41.06641 26.04152 27762 ft 418 kts 72°
2026-05-07 13:03 41.07419 26.07850 27301 ft 415 kts 72°
2026-05-07 13:03 41.08190 26.11521 27083 ft 413 kts 72°
2026-05-07 13:03 41.08962 26.15196 27107 ft 414 kts 72°
2026-05-07 13:04 41.09726 26.18823 27105 ft 415 kts 72°
2026-05-07 13:04 41.10502 26.22507 27108 ft 415 kts 72°
2026-05-07 13:04 41.11262 26.26188 27111 ft 415 kts 75°
2026-05-07 13:04 41.11646 26.29995 27102 ft 417 kts 87°
2026-05-07 13:05 41.11490 26.33833 27100 ft 418 kts 98°
2026-05-07 13:05 41.10805 26.37574 27100 ft 419 kts 109°
2026-05-07 13:05 41.09712 26.41151 27101 ft 419 kts 113°
2026-05-07 13:05 41.08586 26.44718 27098 ft 419 kts 112°
2026-05-07 13:06 41.07469 26.48275 26803 ft 417 kts 112°
2026-05-07 13:06 41.06370 26.51773 26348 ft 415 kts 112°
2026-05-07 13:06 41.05268 26.55286 25879 ft 413 kts 112°
2026-05-07 13:06 41.04240 26.58828 25401 ft 410 kts 105°
2026-05-07 13:07 41.03650 26.62500 24946 ft 406 kts 95°
2026-05-07 13:07 41.03551 26.66209 24574 ft 401 kts 86°
2026-05-07 13:07 41.03637 26.69891 24188 ft 398 kts 86°
2026-05-07 13:07 41.03711 26.73537 23809 ft 396 kts 86°
2026-05-07 13:08 41.03777 26.77171 23394 ft 393 kts 87°
2026-05-07 13:08 41.03836 26.80777 23014 ft 390 kts 87°
2026-05-07 13:08 41.03894 26.84312 22641 ft 388 kts 86°
2026-05-07 13:08 41.04149 26.87837 22279 ft 383 kts 76°
2026-05-07 13:09 41.04894 26.91186 22069 ft 377 kts 64°
2026-05-07 13:09 41.06081 26.94258 22099 ft 374 kts 55°
2026-05-07 13:09 41.07438 26.97194 21920 ft 373 kts 55°
2026-05-07 13:09 41.08795 27.00145 21350 ft 375 kts 56°
2026-05-07 13:10 41.10143 27.03089 20871 ft 373 kts 56°
2026-05-07 13:10 41.11481 27.06026 20436 ft 371 kts 56°
2026-05-07 13:10 41.12816 27.08948 20016 ft 369 kts 56°
2026-05-07 13:10 41.14120 27.11803 19601 ft 366 kts 56°
2026-05-07 13:11 41.15435 27.14683 19196 ft 364 kts 56°
2026-05-07 13:11 41.16734 27.17558 18804 ft 362 kts 59°
2026-05-07 13:11 41.17470 27.20729 18509 ft 361 kts 85°
2026-05-07 13:11 41.17116 27.23971 18351 ft 354 kts 111°
2026-05-07 13:12 41.15783 27.26660 18011 ft 349 kts 138°
2026-05-07 13:12 41.13817 27.28491 17598 ft 345 kts 150°
2026-05-07 13:12 41.11764 27.30133 17200 ft 344 kts 150°
2026-05-07 13:12 41.09741 27.31725 16829 ft 341 kts 150°
2026-05-07 13:13 41.07709 27.33320 16477 ft 339 kts 150°
2026-05-07 13:13 41.05690 27.34908 16142 ft 336 kts 150°
2026-05-07 13:13 41.03687 27.36488 15802 ft 334 kts 150°
2026-05-07 13:13 41.01698 27.38056 15432 ft 332 kts 150°
2026-05-07 13:14 40.99722 27.39622 15080 ft 330 kts 150°
2026-05-07 13:14 40.97827 27.41316 14752 ft 328 kts 139°
2026-05-07 13:14 40.96292 27.43522 14441 ft 325 kts 125°
2026-05-07 13:14 40.95208 27.46135 14086 ft 324 kts 111°
2026-05-07 13:15 40.94406 27.48894 13977 ft 319 kts 111°
2026-05-07 13:15 40.93608 27.51581 13907 ft 317 kts 111°
2026-05-07 13:15 40.92796 27.54289 13831 ft 317 kts 111°
2026-05-07 13:15 40.91986 27.56994 13751 ft 316 kts 111°
2026-05-07 13:16 40.91181 27.59692 13685 ft 316 kts 111°
2026-05-07 13:16 40.90353 27.62381 13613 ft 315 kts 113°
2026-05-07 13:16 40.89462 27.65026 13542 ft 315 kts 114°
2026-05-07 13:16 40.88541 27.67652 13468 ft 315 kts 115°
2026-05-07 13:17 40.87611 27.70272 13380 ft 315 kts 115°
2026-05-07 13:17 40.86695 27.72851 13321 ft 314 kts 115°
2026-05-07 13:17 40.85772 27.75463 13250 ft 314 kts 115°
2026-05-07 13:17 40.84854 27.78076 13178 ft 314 kts 114°
2026-05-07 13:18 40.83943 27.80691 13104 ft 313 kts 114°
2026-05-07 13:18 40.83035 27.83305 12975 ft 314 kts 114°
2026-05-07 13:18 40.82291 27.85996 12713 ft 311 kts 102°
2026-05-07 13:18 40.82035 27.88818 12457 ft 309 kts 89°
2026-05-07 13:19 40.82191 27.91634 12202 ft 308 kts 83°
2026-05-07 13:19 40.82385 27.94414 11944 ft 307 kts 84°
2026-05-07 13:19 40.82573 27.97218 11703 ft 306 kts 84°
2026-05-07 13:19 40.82762 28.00012 11493 ft 305 kts 84°
2026-05-07 13:20 40.82953 28.02808 11265 ft 305 kts 84°
2026-05-07 13:20 40.83140 28.05592 10978 ft 304 kts 84°
2026-05-07 13:20 40.83325 28.08359 10682 ft 302 kts 83°
2026-05-07 13:20 40.83513 28.11123 10384 ft 301 kts 83°
2026-05-07 13:21 40.83700 28.13875 10096 ft 300 kts 83°
2026-05-07 13:21 40.83884 28.16578 9804 ft 299 kts 84°
2026-05-07 13:21 40.84068 28.19311 9491 ft 298 kts 84°
2026-05-07 13:21 40.84249 28.22032 9180 ft 297 kts 84°
2026-05-07 13:22 40.84430 28.24741 8870 ft 296 kts 84°
2026-05-07 13:22 40.84609 28.27441 8565 ft 295 kts 84°
2026-05-07 13:22 40.84789 28.30133 8266 ft 294 kts 84°
2026-05-07 13:22 40.84967 28.32816 7964 ft 293 kts 84°
2026-05-07 13:23 40.85081 28.34589 7764 ft 292 kts 84°
2026-05-07 13:23 40.85253 28.37256 7475 ft 291 kts 84°
2026-05-07 13:23 40.85481 28.40767 7093 ft 286 kts 84°
2026-05-07 13:23 40.85648 28.43332 6915 ft 276 kts 83°
2026-05-07 13:24 40.86110 28.45730 6718 ft 265 kts 63°
2026-05-07 13:24 40.87089 28.47717 6529 ft 254 kts 44°
2026-05-07 13:24 40.87909 28.48809 6398 ft 252 kts 42°
2026-05-07 13:24 40.89147 28.50437 6197 ft 251 kts 42°
2026-05-07 13:25 40.90382 28.52066 5993 ft 250 kts 42°
2026-05-07 13:25 40.91612 28.53691 5792 ft 250 kts 42°
2026-05-07 13:25 40.92836 28.55309 5597 ft 249 kts 42°
2026-05-07 13:25 40.94457 28.57451 5334 ft 248 kts 42°
2026-05-07 13:26 40.95227 28.58603 5197 ft 249 kts 54°
2026-05-07 13:26 40.95900 28.60710 5000 ft 252 kts 79°
2026-05-07 13:26 40.95994 28.62995 4817 ft 252 kts 89°
2026-05-07 13:26 40.96024 28.65278 4609 ft 251 kts 85°
2026-05-07 13:27 40.96431 28.67499 4407 ft 248 kts 63°
2026-05-07 13:27 40.97392 28.69362 4206 ft 244 kts 41°
2026-05-07 13:27 40.98734 28.70627 4005 ft 233 kts 21°
2026-05-07 13:27 41.00251 28.71206 3800 ft 222 kts
2026-05-07 13:28 41.01754 28.71230 3602 ft 213 kts 355°
2026-05-07 13:28 41.03209 28.71201 3445 ft 204 kts 355°
2026-05-07 13:28 41.04598 28.71174 3239 ft 195 kts 355°
2026-05-07 13:28 41.05931 28.71148 3080 ft 189 kts 355°
2026-05-07 13:29 41.07242 28.71121 3003 ft 187 kts 355°
2026-05-07 13:29 41.08531 28.71095 3009 ft 188 kts 355°
2026-05-07 13:29 41.09838 28.71070 3009 ft 188 kts 355°
2026-05-07 13:29 41.11146 28.71044 3014 ft 188 kts 355°
2026-05-07 13:30 41.12458 28.71018 2964 ft 189 kts 355°
2026-05-07 13:30 41.13769 28.70993 2774 ft 189 kts 355°
2026-05-07 13:30 41.15083 28.70967 2545 ft 188 kts 355°
2026-05-07 13:30 41.16376 28.70941 2306 ft 188 kts 356°
2026-05-07 13:31 41.17680 28.70916 2059 ft 187 kts 356°
2026-05-07 13:31 41.18984 28.70890 1822 ft 187 kts 356°
2026-05-07 13:31 41.20229 28.70867 1587 ft 169 kts 356°
2026-05-07 13:31 41.21353 28.70846 1356 ft 155 kts 357°
2026-05-07 13:32 41.22400 28.70832 1163 ft 148 kts 357°
2026-05-07 13:32 41.23401 28.70811 1025 ft 143 kts 358°
2026-05-07 13:32 41.24380 28.70767 819 ft 139 kts 360°
2026-05-07 13:32 41.25351 28.70761 630 ft 139 kts
2026-05-07 13:33 41.26306 28.70736 423 ft 136 kts
2026-05-07 13:33 41.27219 28.70723 333 ft 124 kts 359°
2026-05-07 13:33 41.27915 28.70706 331 ft 75 kts 359°
2026-05-07 13:33 41.28341 28.70697 330 ft 46 kts 359°
2026-05-07 13:34 41.28584 28.70754 334 ft 29 kts 26°
2026-05-07 13:34 41.28646 28.70800 332 ft 0 kts 30°
2026-05-07 13:34 41.28663 28.70813 334 ft 9 kts 30°
2026-05-07 13:35 41.28760 28.70887 330 ft 22 kts 29°
2026-05-07 13:35 41.28888 28.70980 330 ft 18 kts 29°
2026-05-07 13:35 41.28981 28.71048 334 ft 8 kts 29°
2026-05-07 13:35 41.28989 28.71054 333 ft 0 kts 29°
2026-05-07 13:37 41.29003 28.71064 331 ft 6 kts 29°
2026-05-07 13:37 41.29023 28.71132 332 ft 12 kts 133°
2026-05-07 13:37 41.28914 28.71162 331 ft 21 kts 179°
2026-05-07 13:37 41.28759 28.71165 334 ft 23 kts 179°
2026-05-07 13:38 41.28598 28.71169 334 ft 24 kts 179°
2026-05-07 13:38 41.28422 28.71173 334 ft 26 kts 179°
2026-05-07 13:38 41.28235 28.71176 331 ft 28 kts 179°
2026-05-07 13:38 41.28037 28.71182 329 ft 29 kts 179°
2026-05-07 13:39 41.27828 28.71187 332 ft 31 kts 179°
2026-05-07 13:39 41.27611 28.71193 333 ft 31 kts 179°
2026-05-07 13:39 41.27402 28.71197 333 ft 31 kts 179°
2026-05-07 13:39 41.27183 28.71202 331 ft 32 kts 179°
2026-05-07 13:40 41.26968 28.71207 332 ft 31 kts 179°
2026-05-07 13:40 41.26775 28.71211 333 ft 20 kts 179°
2026-05-07 13:40 41.26696 28.71299 331 ft 17 kts 96°
2026-05-07 13:40 41.26697 28.71462 333 ft 18 kts 89°
2026-05-07 13:41 41.26700 28.71640 330 ft 20 kts 88°
2026-05-07 13:41 41.26704 28.71832 334 ft 21 kts 89°
2026-05-07 13:41 41.26707 28.72036 334 ft 23 kts 89°
2026-05-07 13:41 41.26653 28.72170 333 ft 18 kts 168°
2026-05-07 13:42 41.26531 28.72178 332 ft 17 kts 179°
2026-05-07 13:42 41.26417 28.72180 333 ft 16 kts 179°
2026-05-07 13:42 41.26295 28.72182 334 ft 21 kts 179°
2026-05-07 13:42 41.26205 28.72285 334 ft 16 kts 91°
2026-05-07 13:43 41.26207 28.72358 334 ft 0 kts 89°
2026-05-07 13:43 41.26207 28.72377 334 ft 6 kts 89°
2026-05-07 13:43 41.26209 28.72475 331 ft 15 kts 89°
2026-05-07 13:43 41.26212 28.72650 334 ft 23 kts 89°
2026-05-07 13:44 41.26215 28.72878 334 ft 25 kts 89°
2026-05-07 13:44 41.26217 28.73033 334 ft 12 kts 89°
2026-05-07 13:44 41.26218 28.73122 332 ft 10 kts 89°
2026-05-07 13:44 41.26220 28.73219 334 ft 12 kts 89°
2026-05-07 13:45 41.26221 28.73330 331 ft 14 kts 89°
2026-05-07 13:45 41.26224 28.73464 332 ft 10 kts 87°
2026-05-07 13:45 41.26225 28.73542 334 ft 9 kts 91°
2026-05-07 13:45 41.26241 28.73623 332 ft 7 kts 71°
2026-05-07 13:46 41.26246 28.73641 332 ft 0 kts 71°